AUA297W LOWW-EBBR

Flight info

Callsign AUA297W
Flight time 1h 17m
Altitude 36000
Route BUWUT2B BUWUT DCT DITIS DCT OKG DCT LONLI DCT MARZA DCT TEKTU DCT TESGA DCT UMUPU T880 ADMUM/N0370F220 T880 BATTY BATTY7A
Aircraft A320/M-SDE2E3FGIJ1RWXY/LB1

Departure

Time 2026-05-07 17:43
Airport Vienna International Airport (LOWW)

Arrival

Time 2026-05-07 19:01
Airport Brussels Airport (EBBR)
Time Latitude Longitude Altitude Speed Heading
2026-05-07 17:12 48.11915 16.56714 626 ft 0 kts 206°
2026-05-07 17:33 48.11916 16.56714 610 ft 1 kts 206°
2026-05-07 17:33 48.11938 16.56730 625 ft 4 kts 206°
2026-05-07 17:34 48.11957 16.56744 617 ft 4 kts 201°
2026-05-07 17:34 48.11979 16.56751 614 ft 4 kts 145°
2026-05-07 17:34 48.11989 16.56730 622 ft 0 kts 116°
2026-05-07 17:35 48.11991 16.56760 621 ft 8 kts 71°
2026-05-07 17:35 48.11994 16.56854 609 ft 9 kts 115°
2026-05-07 17:36 48.11968 16.56934 614 ft 10 kts 116°
2026-05-07 17:36 48.11938 16.57025 614 ft 9 kts 116°
2026-05-07 17:36 48.11907 16.57119 617 ft 12 kts 116°
2026-05-07 17:36 48.11849 16.57232 609 ft 16 kts 122°
2026-05-07 17:37 48.11808 16.57376 609 ft 14 kts 97°
2026-05-07 17:37 48.11771 16.57484 615 ft 13 kts 156°
2026-05-07 17:37 48.11666 16.57531 617 ft 19 kts 165°
2026-05-07 17:37 48.11536 16.57585 612 ft 20 kts 164°
2026-05-07 17:38 48.11397 16.57644 613 ft 21 kts 164°
2026-05-07 17:38 48.11266 16.57682 613 ft 18 kts 190°
2026-05-07 17:38 48.11178 16.57621 618 ft 12 kts 206°
2026-05-07 17:38 48.11101 16.57614 615 ft 11 kts 136°
2026-05-07 17:39 48.11071 16.57656 617 ft 5 kts 158°
2026-05-07 17:39 48.11051 16.57652 615 ft 1 kts 204°
2026-05-07 17:39 48.11050 16.57651 615 ft 0 kts 204°
2026-05-07 17:41 48.11040 16.57644 609 ft 3 kts 204°
2026-05-07 17:41 48.11023 16.57633 620 ft 0 kts 205°
2026-05-07 17:41 48.11007 16.57621 609 ft 5 kts 205°
2026-05-07 17:42 48.10957 16.57585 615 ft 14 kts 206°
2026-05-07 17:42 48.10927 16.57493 616 ft 13 kts 299°
2026-05-07 17:42 48.11029 16.57179 618 ft 67 kts 295°
2026-05-07 17:42 48.11331 16.56253 619 ft 129 kts 296°
2026-05-07 17:43 48.11795 16.54835 765 ft 161 kts 294°
2026-05-07 17:43 48.12144 16.53289 1443 ft 159 kts 268°
2026-05-07 17:43 48.11955 16.51625 1918 ft 172 kts 256°
2026-05-07 17:43 48.11739 16.49754 2233 ft 194 kts 259°
2026-05-07 17:44 48.11541 16.47630 2572 ft 219 kts 266°
2026-05-07 17:44 48.11742 16.45237 2956 ft 245 kts 279°
2026-05-07 17:44 48.12045 16.42635 3552 ft 260 kts 280°
2026-05-07 17:44 48.12343 16.39948 4455 ft 261 kts 280°
2026-05-07 17:45 48.12631 16.37270 5453 ft 261 kts 280°
2026-05-07 17:45 48.12919 16.34551 6351 ft 264 kts 280°
2026-05-07 17:45 48.13203 16.31830 7167 ft 268 kts 280°
2026-05-07 17:45 48.13490 16.29056 8026 ft 271 kts 279°
2026-05-07 17:46 48.13782 16.26254 8860 ft 274 kts 279°
2026-05-07 17:46 48.14111 16.23432 9691 ft 277 kts 285°
2026-05-07 17:46 48.14838 16.20758 10450 ft 280 kts 300°
2026-05-07 17:46 48.16033 16.18437 11209 ft 284 kts 314°
2026-05-07 17:47 48.17548 16.16396 11602 ft 303 kts 317°
2026-05-07 17:47 48.19189 16.14218 11793 ft 327 kts 317°
2026-05-07 17:47 48.20949 16.11880 11943 ft 349 kts 317°
2026-05-07 17:47 48.22819 16.09392 12083 ft 369 kts 317°
2026-05-07 17:48 48.24765 16.06802 12567 ft 378 kts 317°
2026-05-07 17:48 48.26744 16.04168 13199 ft 382 kts 316°
2026-05-07 17:48 48.28744 16.01502 13811 ft 387 kts 316°
2026-05-07 17:48 48.30763 15.98801 14369 ft 391 kts 316°
2026-05-07 17:49 48.32802 15.96069 14909 ft 395 kts 316°
2026-05-07 17:49 48.34862 15.93309 15451 ft 399 kts 316°
2026-05-07 17:49 48.36945 15.90517 15994 ft 403 kts 316°
2026-05-07 17:49 48.39048 15.87693 16521 ft 407 kts 316°
2026-05-07 17:50 48.41171 15.84835 17036 ft 412 kts 315°
2026-05-07 17:50 48.43315 15.81944 17536 ft 415 kts 315°
2026-05-07 17:50 48.45470 15.79037 18079 ft 418 kts 315°
2026-05-07 17:50 48.47649 15.76099 18537 ft 421 kts 315°
2026-05-07 17:51 48.49839 15.73140 18985 ft 424 kts 315°
2026-05-07 17:51 48.52033 15.70175 19507 ft 424 kts 315°
2026-05-07 17:51 48.54231 15.67199 19937 ft 426 kts 315°
2026-05-07 17:51 48.56445 15.64189 20324 ft 429 kts 315°
2026-05-07 17:52 48.58665 15.61170 20710 ft 432 kts 315°
2026-05-07 17:52 48.60906 15.58126 21084 ft 434 kts 315°
2026-05-07 17:52 48.63161 15.55064 21426 ft 437 kts 315°
2026-05-07 17:52 48.65429 15.51978 21780 ft 440 kts 315°
2026-05-07 17:53 48.67703 15.48874 22120 ft 442 kts 315°
2026-05-07 17:53 48.69994 15.45742 22474 ft 445 kts 315°
2026-05-07 17:53 48.72295 15.42594 22812 ft 447 kts 314°
2026-05-07 17:53 48.74604 15.39427 23194 ft 448 kts 314°
2026-05-07 17:54 48.76915 15.36248 23557 ft 449 kts 314°
2026-05-07 17:54 48.79226 15.33051 23847 ft 450 kts 313°
2026-05-07 17:54 48.81329 15.29542 24103 ft 448 kts 304°
2026-05-07 17:54 48.83160 15.25720 24341 ft 449 kts 302°
2026-05-07 17:55 48.84985 15.21863 24591 ft 451 kts 302°
2026-05-07 17:55 48.86814 15.17990 24834 ft 452 kts 302°
2026-05-07 17:55 48.88644 15.14101 25064 ft 454 kts 302°
2026-05-07 17:55 48.90479 15.10191 25285 ft 455 kts 301°
2026-05-07 17:56 48.92299 15.06241 25524 ft 456 kts 301°
2026-05-07 17:56 48.94094 15.02278 25856 ft 453 kts 301°
2026-05-07 17:56 48.95863 14.98323 26198 ft 452 kts 300°
2026-05-07 17:56 48.97623 14.94364 26500 ft 451 kts 300°
2026-05-07 17:57 48.99383 14.90411 26795 ft 451 kts 300°
2026-05-07 17:57 49.00552 14.87791 27011 ft 451 kts 300°
2026-05-07 17:57 49.02919 14.82501 27357 ft 453 kts 300°
2026-05-07 17:57 49.04698 14.78535 27633 ft 453 kts 300°
2026-05-07 17:58 49.05875 14.75911 27840 ft 453 kts 300°
2026-05-07 17:58 49.07651 14.71948 28151 ft 453 kts 300°
2026-05-07 17:58 49.09423 14.67978 28518 ft 451 kts 301°
2026-05-07 17:58 49.11176 14.64039 28942 ft 448 kts 301°
2026-05-07 17:59 49.12924 14.60113 29316 ft 446 kts 301°
2026-05-07 17:59 49.14661 14.56203 29658 ft 445 kts 301°
2026-05-07 17:59 49.16397 14.52286 29979 ft 445 kts 301°
2026-05-07 17:59 49.18128 14.48375 30284 ft 444 kts 301°
2026-05-07 18:00 49.19856 14.44464 30561 ft 444 kts 301°
2026-05-07 18:00 49.21582 14.40553 30819 ft 444 kts 301°
2026-05-07 18:00 49.23305 14.36634 31077 ft 444 kts 300°
2026-05-07 18:00 49.25024 14.32721 31363 ft 443 kts 301°
2026-05-07 18:01 49.26737 14.28814 31675 ft 441 kts 301°
2026-05-07 18:01 49.28447 14.24910 31967 ft 440 kts 301°
2026-05-07 18:01 49.30153 14.21014 32232 ft 441 kts 301°
2026-05-07 18:01 49.31859 14.17116 32488 ft 441 kts 301°
2026-05-07 18:02 49.35280 14.09281 32948 ft 443 kts 301°
2026-05-07 18:02 49.36990 14.05355 33196 ft 443 kts 301°
2026-05-07 18:02 49.38703 14.01418 33444 ft 444 kts 301°
2026-05-07 18:03 49.40419 13.97472 33702 ft 444 kts 301°
2026-05-07 18:03 49.42131 13.93531 33987 ft 443 kts 301°
2026-05-07 18:03 49.43839 13.89591 34230 ft 443 kts 301°
2026-05-07 18:03 49.45543 13.85649 34462 ft 443 kts 301°
2026-05-07 18:04 49.47244 13.81707 34671 ft 443 kts 301°
2026-05-07 18:04 49.48944 13.77756 34888 ft 443 kts 301°
2026-05-07 18:04 49.50639 13.73807 35103 ft 443 kts 301°
2026-05-07 18:04 49.52335 13.69858 35290 ft 443 kts 301°
2026-05-07 18:05 49.54035 13.65900 35484 ft 443 kts 301°
2026-05-07 18:05 49.55733 13.61942 35669 ft 443 kts 301°
2026-05-07 18:05 49.57430 13.57973 35866 ft 443 kts 301°
2026-05-07 18:05 49.59125 13.54005 36002 ft 444 kts 301°
2026-05-07 18:06 49.60827 13.50018 36032 ft 447 kts 301°
2026-05-07 18:06 49.64253 13.41974 36030 ft 449 kts 301°
2026-05-07 18:07 49.67681 13.33894 36030 ft 450 kts 301°
2026-05-07 18:07 49.71105 13.25797 36032 ft 450 kts 301°
2026-05-07 18:08 49.74526 13.17683 36029 ft 451 kts 301°
2026-05-07 18:08 49.77946 13.09551 36036 ft 451 kts 301°
2026-05-07 18:09 49.81358 13.01409 36039 ft 451 kts 301°
2026-05-07 18:09 49.84772 12.93236 36041 ft 451 kts 301°
2026-05-07 18:10 49.88173 12.85063 36029 ft 452 kts 301°
2026-05-07 18:10 49.91577 12.76860 36039 ft 453 kts 301°
2026-05-07 18:11 49.94980 12.68631 36035 ft 453 kts 301°
2026-05-07 18:11 49.98360 12.60434 36038 ft 454 kts 301°
2026-05-07 18:12 50.01788 12.52100 36031 ft 455 kts 301°
2026-05-07 18:12 50.04983 12.43635 36040 ft 453 kts 291°
2026-05-07 18:13 50.06542 12.34227 36054 ft 450 kts 275°
2026-05-07 18:13 50.07312 12.24562 36060 ft 450 kts 277°
2026-05-07 18:14 50.08302 12.14939 36062 ft 450 kts 278°
2026-05-07 18:14 50.09327 12.05313 36066 ft 451 kts 278°
2026-05-07 18:15 50.10297 11.95678 36073 ft 450 kts 278°
2026-05-07 18:15 50.11331 11.86047 36073 ft 451 kts 279°
2026-05-07 18:16 50.12519 11.76460 36073 ft 451 kts 280°
2026-05-07 18:16 50.13713 11.66872 36073 ft 451 kts 280°
2026-05-07 18:17 50.14861 11.57269 36070 ft 451 kts 279°
2026-05-07 18:17 50.15984 11.47642 36072 ft 451 kts 279°
2026-05-07 18:18 50.17092 11.38015 36073 ft 451 kts 279°
2026-05-07 18:18 50.18204 11.28381 36073 ft 451 kts 279°
2026-05-07 18:19 50.19310 11.18746 36073 ft 451 kts 279°
2026-05-07 18:19 50.20410 11.09107 36073 ft 451 kts 279°
2026-05-07 18:20 50.21498 10.99465 36081 ft 451 kts 279°
2026-05-07 18:20 50.22577 10.89822 36080 ft 450 kts 279°
2026-05-07 18:21 50.23648 10.80189 36082 ft 450 kts 279°
2026-05-07 18:21 50.24713 10.70556 36085 ft 450 kts 279°
2026-05-07 18:22 50.25767 10.60925 36085 ft 450 kts 279°
2026-05-07 18:22 50.26811 10.51297 36084 ft 450 kts 279°
2026-05-07 18:23 50.27850 10.41657 36081 ft 449 kts 279°
2026-05-07 18:23 50.28881 10.32023 36085 ft 449 kts 279°
2026-05-07 18:24 50.29907 10.22382 36087 ft 449 kts 279°
2026-05-07 18:24 50.30919 10.12736 36087 ft 449 kts 279°
2026-05-07 18:25 50.31922 10.03094 36088 ft 449 kts 278°
2026-05-07 18:25 50.32913 9.93438 36091 ft 449 kts 278°
2026-05-07 18:26 50.33898 9.83784 36092 ft 449 kts 278°
2026-05-07 18:26 50.34878 9.74124 36093 ft 449 kts 278°
2026-05-07 18:27 50.35853 9.64461 36094 ft 449 kts 278°
2026-05-07 18:27 50.36825 9.54814 36093 ft 449 kts 278°
2026-05-07 18:28 50.37783 9.45159 36088 ft 448 kts 278°
2026-05-07 18:28 50.38722 9.35515 36086 ft 448 kts 278°
2026-05-07 18:29 50.39657 9.25866 36096 ft 448 kts 278°
2026-05-07 18:29 50.40595 9.16216 36093 ft 448 kts 278°
2026-05-07 18:30 50.41524 9.06571 36091 ft 447 kts 278°
2026-05-07 18:30 50.42436 8.96918 36091 ft 447 kts 278°
2026-05-07 18:31 50.43329 8.87278 36090 ft 447 kts 278°
2026-05-07 18:31 50.44231 8.77640 36087 ft 446 kts 278°
2026-05-07 18:32 50.45123 8.68007 36086 ft 446 kts 278°
2026-05-07 18:32 50.46001 8.58365 36083 ft 446 kts 278°
2026-05-07 18:33 50.46865 8.48722 36083 ft 446 kts 277°
2026-05-07 18:33 50.47722 8.39072 36081 ft 446 kts 277°
2026-05-07 18:34 50.48582 8.29419 36083 ft 446 kts 277°
2026-05-07 18:34 50.49442 8.19703 35997 ft 446 kts 277°
2026-05-07 18:34 50.49860 8.14945 35699 ft 445 kts 277°
2026-05-07 18:35 50.50283 8.10067 35405 ft 445 kts 277°
2026-05-07 18:35 50.50694 8.05259 35162 ft 445 kts 277°
2026-05-07 18:35 50.51104 8.00440 34923 ft 445 kts 277°
2026-05-07 18:35 50.51514 7.95623 34681 ft 445 kts 278°
2026-05-07 18:36 50.51925 7.90803 34089 ft 446 kts 278°
2026-05-07 18:36 50.52335 7.85976 33274 ft 445 kts 277°
2026-05-07 18:36 50.52742 7.81159 32494 ft 445 kts 277°
2026-05-07 18:36 50.53011 7.77964 31984 ft 446 kts 277°
2026-05-07 18:37 50.53416 7.73124 31241 ft 447 kts 277°
2026-05-07 18:37 50.53819 7.68267 30514 ft 449 kts 277°
2026-05-07 18:37 50.54219 7.63394 29741 ft 451 kts 277°
2026-05-07 18:37 50.54618 7.58500 28907 ft 452 kts 277°
2026-05-07 18:38 50.55018 7.53589 28104 ft 454 kts 277°
2026-05-07 18:38 50.55417 7.48651 27321 ft 456 kts 277°
2026-05-07 18:38 50.55800 7.43689 26562 ft 458 kts 274°
2026-05-07 18:38 50.55910 7.38681 25876 ft 459 kts 270°
2026-05-07 18:39 50.55950 7.33649 25608 ft 461 kts 270°
2026-05-07 18:39 50.55986 7.28605 25360 ft 462 kts 270°
2026-05-07 18:39 50.56019 7.23546 25113 ft 463 kts 270°
2026-05-07 18:39 50.56051 7.18483 24870 ft 464 kts 270°
2026-05-07 18:40 50.56051 7.13410 24627 ft 464 kts 269°
2026-05-07 18:40 50.55977 7.08346 24386 ft 462 kts 268°
2026-05-07 18:40 50.55853 7.03302 24149 ft 461 kts 267°
2026-05-07 18:40 50.55705 6.98275 23913 ft 459 kts 266°
2026-05-07 18:41 50.55554 6.93262 23684 ft 459 kts 267°
2026-05-07 18:41 50.55412 6.88254 23415 ft 458 kts 267°
2026-05-07 18:41 50.55279 6.83259 23137 ft 456 kts 267°
2026-05-07 18:41 50.55153 6.78280 22860 ft 455 kts 267°
2026-05-07 18:42 50.55034 6.73319 22582 ft 453 kts 268°
2026-05-07 18:42 50.55167 6.68391 22301 ft 452 kts 278°
2026-05-07 18:42 50.55977 6.63635 22073 ft 451 kts 288°
2026-05-07 18:42 50.56967 6.58959 22061 ft 450 kts 288°
2026-05-07 18:43 50.57972 6.54291 22076 ft 451 kts 288°
2026-05-07 18:43 50.58988 6.49620 22069 ft 451 kts 288°
2026-05-07 18:43 50.60008 6.44954 22069 ft 451 kts 288°
2026-05-07 18:43 50.61027 6.40289 21896 ft 451 kts 288°
2026-05-07 18:44 50.62042 6.35629 21629 ft 449 kts 288°
2026-05-07 18:44 50.63037 6.31040 21408 ft 434 kts 288°
2026-05-07 18:44 50.63988 6.26641 21276 ft 415 kts 288°
2026-05-07 18:44 50.64895 6.22435 21147 ft 398 kts 288°
2026-05-07 18:45 50.65767 6.18381 21015 ft 383 kts 288°
2026-05-07 18:45 50.66607 6.14465 20824 ft 372 kts 288°
2026-05-07 18:45 50.67415 6.10668 20567 ft 356 kts 288°
2026-05-07 18:45 50.68180 6.07076 20312 ft 336 kts 287°
2026-05-07 18:46 50.68909 6.03654 19834 ft 324 kts 287°
2026-05-07 18:46 50.69620 6.00311 19210 ft 319 kts 287°
2026-05-07 18:46 50.70323 5.96993 18699 ft 318 kts 287°
2026-05-07 18:46 50.71017 5.93709 18153 ft 314 kts 287°
2026-05-07 18:47 50.71706 5.90447 17523 ft 312 kts 287°
2026-05-07 18:47 50.72388 5.87211 16920 ft 310 kts 287°
2026-05-07 18:47 50.73063 5.84000 16341 ft 307 kts 287°
2026-05-07 18:47 50.73736 5.80810 15788 ft 305 kts 287°
2026-05-07 18:48 50.74405 5.77644 15295 ft 305 kts 287°
2026-05-07 18:48 50.75067 5.74488 14885 ft 300 kts 287°
2026-05-07 18:48 50.75720 5.71361 14302 ft 299 kts 287°
2026-05-07 18:48 50.76369 5.68254 13834 ft 297 kts 287°
2026-05-07 18:49 50.77017 5.65161 13326 ft 295 kts 287°
2026-05-07 18:49 50.77658 5.62095 12820 ft 293 kts 287°
2026-05-07 18:49 50.78296 5.59037 12297 ft 292 kts 287°
2026-05-07 18:49 50.78926 5.56000 11795 ft 290 kts 287°
2026-05-07 18:50 50.79590 5.52986 11397 ft 290 kts 289°
2026-05-07 18:50 50.80318 5.50023 11052 ft 288 kts 291°
2026-05-07 18:50 50.81069 5.47097 10700 ft 287 kts 291°
2026-05-07 18:50 50.81823 5.44186 10345 ft 285 kts 291°
2026-05-07 18:51 50.82569 5.41287 9988 ft 284 kts 291°
2026-05-07 18:51 50.83307 5.38395 9594 ft 283 kts 291°
2026-05-07 18:51 50.84037 5.35514 9201 ft 281 kts 291°
2026-05-07 18:51 50.84760 5.32646 8806 ft 280 kts 291°
2026-05-07 18:52 50.85475 5.29795 8418 ft 278 kts 291°
2026-05-07 18:52 50.86186 5.26953 8018 ft 277 kts 291°
2026-05-07 18:52 50.86889 5.24128 7631 ft 275 kts 291°
2026-05-07 18:52 50.87589 5.21313 7245 ft 274 kts 291°
2026-05-07 18:53 50.88285 5.18521 6982 ft 273 kts 291°
2026-05-07 18:53 50.88983 5.15720 6734 ft 273 kts 291°
2026-05-07 18:53 50.89677 5.12923 6487 ft 273 kts 291°
2026-05-07 18:53 50.90368 5.10138 6227 ft 272 kts 291°
2026-05-07 18:54 50.91060 5.07354 6057 ft 272 kts 291°
2026-05-07 18:54 50.91749 5.04568 5787 ft 271 kts 291°
2026-05-07 18:54 50.92427 5.01824 5529 ft 271 kts 291°
2026-05-07 18:54 50.93113 4.99049 5245 ft 270 kts 291°
2026-05-07 18:55 50.93794 4.96286 4951 ft 269 kts 291°
2026-05-07 18:55 50.94475 4.93523 4634 ft 269 kts 291°
2026-05-07 18:55 50.95154 4.90769 4318 ft 267 kts 291°
2026-05-07 18:55 50.95834 4.87995 4056 ft 265 kts 291°
2026-05-07 18:56 50.96497 4.85277 3665 ft 263 kts 291°
2026-05-07 18:56 50.97158 4.82572 3250 ft 262 kts 291°
2026-05-07 18:56 50.97804 4.79920 2850 ft 261 kts 291°
2026-05-07 18:56 50.98354 4.77193 2439 ft 259 kts 277°
2026-05-07 18:57 50.98174 4.74378 2174 ft 250 kts 249°
2026-05-07 18:57 50.97488 4.71923 2057 ft 237 kts 245°
2026-05-07 18:57 50.96815 4.69593 2007 ft 229 kts 245°
2026-05-07 18:57 50.96165 4.67344 2002 ft 217 kts 245°
2026-05-07 18:58 50.95564 4.65265 2004 ft 204 kts 245°
2026-05-07 18:58 50.94994 4.63294 2028 ft 193 kts 245°
2026-05-07 18:58 50.94437 4.61362 1714 ft 189 kts 245°
2026-05-07 18:58 50.93915 4.59546 1445 ft 171 kts 245°
2026-05-07 18:59 50.93441 4.57896 1248 ft 154 kts 245°
2026-05-07 18:59 50.93015 4.56418 1032 ft 146 kts 245°
2026-05-07 18:59 50.92601 4.54979 828 ft 141 kts 246°
2026-05-07 18:59 50.92190 4.53544 647 ft 140 kts 245°
2026-05-07 19:00 50.91794 4.52150 457 ft 142 kts 246°
2026-05-07 19:00 50.91383 4.50722 273 ft 143 kts 245°
2026-05-07 19:00 50.90975 4.49315 127 ft 133 kts 245°
2026-05-07 19:00 50.90669 4.48260 121 ft 77 kts 245°
2026-05-07 19:01 50.90498 4.47745 124 ft 39 kts 230°
2026-05-07 19:01 50.90358 4.47573 123 ft 17 kts 201°
2026-05-07 19:01 50.90324 4.47690 117 ft 16 kts 67°
2026-05-07 19:01 50.90369 4.47846 119 ft 15 kts 65°
2026-05-07 19:02 50.90423 4.48034 120 ft 23 kts 65°
2026-05-07 19:02 50.90492 4.48271 119 ft 24 kts 65°
2026-05-07 19:02 50.90549 4.48470 119 ft 13 kts 65°
2026-05-07 19:02 50.90572 4.48548 119 ft 3 kts 65°
2026-05-07 19:03 50.90586 4.48596 119 ft 9 kts 65°
2026-05-07 19:03 50.90623 4.48728 120 ft 20 kts 65°
2026-05-07 19:03 50.90686 4.48941 119 ft 21 kts 65°
2026-05-07 19:03 50.90676 4.49099 118 ft 16 kts 173°
2026-05-07 19:04 50.90616 4.48972 118 ft 14 kts 246°
2026-05-07 19:04 50.90588 4.48876 119 ft 6 kts 245°
2026-05-07 19:04 50.90558 4.48855 121 ft 7 kts 167°
2026-05-07 19:04 50.90514 4.48885 120 ft 5 kts 155°
2026-05-07 19:05 50.90500 4.48896 120 ft 1 kts 155°
2026-05-07 19:05 50.90493 4.48900 121 ft 1 kts 155°
2026-05-07 19:05 50.90492 4.48901 121 ft 0 kts 155°